This is the latest recevied weather packets stored in our database for station/object EA2AFZ-W. If no packets are shown the sender has not sent any weather packets the latest 10 day(s).
| Time | Temp. | Humidity | Pressure | Rain* | Wind** | Luminosity | Snow |
|---|---|---|---|---|---|---|---|
| 1787903135 | 18.33° C | 47% | 1018 hPa | 0 mm | - | - | - |
| 1787901334 | 18.89° C | 48% | 1017 hPa | 0 mm | - | - | - |
| 1787899531 | 18.33° C | 47% | 1017 hPa | 0 mm | - | - | - |
| 1787897728 | 17.78° C | 47% | 1017 hPa | 0 mm | - | - | - |
| 1787895925 | 17.78° C | 48% | 1017 hPa | 0 mm | - | - | - |
| 1787894124 | 17.78° C | 49% | 1016 hPa | 0 mm | - | - | - |
| 1787892322 | 17.78° C | 48% | 1016 hPa | 0 mm | - | - | - |
| 1787890519 | 17.78° C | 48% | 1016 hPa | 0 mm | - | - | - |
| 1787888717 | 17.78° C | 49% | 1016 hPa | 0 mm | - | - | - |
| 1787886914 | 17.78° C | 52% | 1016 hPa | 0 mm | - | - | - |
| 1787885112 | 17.78° C | 59% | 1015 hPa | 0 mm | - | - | - |
| 1787883310 | 17.78° C | 72% | 1015 hPa | 0 mm | - | - | - |
| 1787881508 | 17.78° C | 75% | 1015 hPa | 0 mm | - | - | - |
| 1787879765 | 17.78° C | 76% | 1015 hPa | 0 mm | - | - | - |
| 1787877963 | 20° C | 50% | 1015 hPa | 0 mm | - | - | - |
| 1787876161 | 20° C | 52% | 1015 hPa | 0 mm | - | - | - |
| 1787874360 | 20.56° C | 51% | 1015 hPa | 0 mm | - | - | - |
| 1787872555 | 20.56° C | 48% | 1015 hPa | 0 mm | - | - | - |
| 1787870753 | 21.67° C | 41% | 1014 hPa | 0 mm | - | - | - |
| 1787868951 | 21.67° C | 41% | 1013 hPa | 0 mm | - | - | - |
| 1787867149 | 21.67° C | 41% | 1014 hPa | 0 mm | - | - | - |
| 1787865347 | 22.22° C | 40% | 1013 hPa | 0 mm | - | - | - |
| 1787863545 | 22.78° C | 39% | 1013 hPa | 0 mm | - | - | - |
| 1787861741 | 23.33° C | 38% | 1012 hPa | 0 mm | - | - | - |
| 1787859940 | 23.89° C | 37% | 1012 hPa | 0 mm | - | - | - |
* Rain latest hour (hover to see other rain measurements)
** Current wind speed in m/s (hover to see current wind gust speed)